TimeAKDT,TemperatureF,Dew PointF,Humidity,Sea Level PressureIn,VisibilityMPH,Wind Direction,Wind SpeedMPH,Gust SpeedMPH,PrecipitationIn,Events,Conditions,WindDirDegrees,DateUTC
12:53 AM,33.1,30.9,92,29.75,10.0,Calm,Calm,-,N/A,,Overcast,0,2013-05-01 08:53:00
1:53 AM,32.0,30.9,96,29.73,10.0,Calm,Calm,-,N/A,,Overcast,0,2013-05-01 09:53:00
2:53 AM,33.1,30.9,92,29.70,10.0,Calm,Calm,-,N/A,,Overcast,0,2013-05-01 10:53:00
3:53 AM,33.1,30.9,92,29.68,10.0,Calm,Calm,-,N/A,,Overcast,0,2013-05-01 11:53:00
4:53 AM,32.0,30.0,92,29.65,10.0,Calm,Calm,-,N/A,,Mostly Cloudy,0,2013-05-01 12:53:00
5:53 AM,32.0,28.9,88,29.63,10.0,Calm,Calm,-,N/A,,Mostly Cloudy,0,2013-05-01 13:53:00
6:53 AM,30.9,28.9,92,29.61,10.0,Calm,Calm,-,N/A,,Partly Cloudy,0,2013-05-01 14:53:00
7:53 AM,30.9,28.9,92,29.60,10.0,Calm,Calm,-,N/A,,Partly Cloudy,0,2013-05-01 15:53:00
8:53 AM,33.1,30.0,89,29.58,10.0,Calm,Calm,-,N/A,,Mostly Cloudy,0,2013-05-01 16:53:00
9:53 AM,39.0,34.0,82,29.57,10.0,NNE,3.5,-,N/A,,Mostly Cloudy,20,2013-05-01 17:53:00
10:53 AM,39.9,30.0,68,29.56,10.0,NNE,5.8,-,N/A,,Overcast,20,2013-05-01 18:53:00
11:53 AM,42.1,30.9,65,29.56,10.0,North,6.9,-,N/A,,Overcast,10,2013-05-01 19:53:00
12:53 PM,41.0,32.0,70,29.55,10.0,North,8.1,-,N/A,,Overcast,350,2013-05-01 20:53:00
1:53 PM,41.0,33.1,73,29.55,10.0,North,8.1,-,N/A,,Overcast,360,2013-05-01 21:53:00
2:53 PM,42.1,33.1,70,29.55,10.0,North,10.4,-,N/A,,Overcast,10,2013-05-01 22:53:00
3:53 PM,44.1,33.1,65,29.55,10.0,NNE,5.8,-,N/A,,Overcast,20,2013-05-01 23:53:00
4:53 PM,42.1,32.0,67,29.56,10.0,Variable,4.6,-,N/A,,Overcast,0,2013-05-02 00:53:00
5:53 PM,42.1,32.0,67,29.57,10.0,Variable,4.6,-,N/A,,Overcast,0,2013-05-02 01:53:00
6:53 PM,42.1,32.0,67,29.58,10.0,Variable,3.5,-,N/A,,Overcast,0,2013-05-02 02:53:00
7:53 PM,41.0,32.0,70,29.60,10.0,Calm,Calm,-,N/A,,Overcast,0,2013-05-02 03:53:00
8:53 PM,41.0,30.9,67,29.60,10.0,Calm,Calm,-,N/A,,Overcast,0,2013-05-02 04:53:00
9:53 PM,39.0,32.0,76,29.62,10.0,Calm,Calm,-,N/A,,Mostly Cloudy,0,2013-05-02 05:53:00
10:53 PM,37.9,32.0,79,29.63,10.0,Calm,Calm,-,N/A,,Overcast,0,2013-05-02 06:53:00
11:53 PM,37.9,32.0,79,29.65,10.0,Calm,Calm,-,N/A,,Overcast,0,2013-05-02 07:53:00